Location: Tom
(33.0437°N, 96.9452°W)
Time: 16:12:55
(UTC-05:00)

ISS - Visible Passes

Search period start: 18 October 2019 00:00
Search period end: 28 October 2019 00:00
Orbit: 411 x 421 km, 51.6° (Epoch: 19 October)

Date Brightness Start Highest point End Pass type
(mag) Time Alt. Az. Time Alt. Az. Time Alt. Az.
21 Oct -0.7 06:45:28 10° SSE 06:47:31 15° SE 06:49:35 10° E visible
23 Oct -3.0 06:43:35 10° SSW 06:46:53 53° SE 06:50:10 10° NE visible
24 Oct -1.7 05:56:58 19° S 05:58:23 26° SE 06:01:15 10° ENE visible
25 Oct -0.3 05:11:26 11° E 05:11:26 11° E 05:11:46 10° E visible
25 Oct -3.3 06:44:23 19° WSW 06:46:23 41° NW 06:49:36 10° NNE visible
26 Oct -3.0 05:58:35 48° NE 05:58:35 48° NE 06:01:08 10° NE visible
27 Oct -1.9 06:45:30 16° NW 06:46:06 16° NNW 06:48:19 10° N visible
